SCP
0 0 0 0 0 0 0 0 0 0 0 0 0 0 0 0 0 0 0 0 0 0 0 0 0 0 0 0 0 0 0 0 0 0 0 0 0 0 0 -0 0 0 0
0 0 0 0 0 0 0 0 0 0 0 0 0 0 0 0 0 0 0 0 0 0 0 0 0 0 0 0 0 0 0 0 0 0 0 0 0 0 0 0 0 0 0
0 0 0 0 0 0 0 0 0 0 0 0 0 0 0 0 0 0 0 0 0 0 0 0 0 0 0 0 0 0 0 0 0 0 0 0 0 0 0 0 0 0 0
0 0 0 0 0 0 0 0 0 0 0 0 0 0 0 0 0 0 0 0 0 0 0 0 0 0 0 0 0 0 0 0 0 0 0 0 0 0 0 0 0 0 0
0 0 0 0 0 0 0 0 0 0 0 0 0 0 0 0 0 0 0 0 0 0 0 0 0 0 0 0 0 0 0 0 0 0 0 0 0 0 0 0 0 0 0
0 0 0 0 0 0 0 0 0 0 0 0 0 0 0 0 0 0 0 0 0 0 0 0 0 0 0 0 0 0 0 0 0 0 0 0 0 0 0 0 0 0 0
0 0 0 0 0 0 0 0 0 0 0 0 0 0 0 0 0 0 0 0 0 0 0 0 0 0 0 0 0 0 0 0 0 0 0 0 0 0 0 0 0 0 0
0 0 0 0 0 0 0 0 0 0 0 0 0 0 0 0 0 0 0 0 0 0 0 0 0 0 0 0 0 0 0 0 0 0 0 0 0 0 0 0 0 0 0
0 0 0 0 0 0 0 0 0 0 0 0 0 0 0 0 0 0 0 0 0 0 0 0 0 0 0 0 0 0 0 0 0 0 0 0 0 0 0 0 0 0 0
0 0 0 0 0 0 0 0 0 0 0 0 0 0 0 0 0 0 0 0 0 0 0 0 0 0 0 0 0 0 0 0 0 0 0 0 0 0 0 0 0 0 0
0 0 0 0 0 0 0 0 0 0 0 0 0 0 0 0 0 0 0 0 0 0 0 0 0 0 0 0 0 0 0 0 0 0 0 0 0 0 0 0 0 0 0
0 0 0 0 0 0 0 0 0 0 0 0 0 0 0 0 0 0 0 0 0 0 0 0 0 0 0 0 0 0 0 0 0 0 0 0 0 0 0 0 0 0 0
0 0 0 0 0 0 0 0 0 0 0 0 0 0 0 0 0 0 0 0 0 0 0 0 0 0 0 0 0 0 0 0 0 0 0 0 0 0 0 0 0 0 0
0 0 0 0 0 0 0 0 0 0 0 0 0 0 0 0 0 0 0 0 0 0 0 0 0 0 0 0 0 0 0 0 0 0 0 0 0 0 0 0 0 0 0
0 0 0 0 0 0 0 0 0 0 0 0 0 0 0 0 0 0 0 0 0 0 0 0 0 0 0 0 0 0 0 0 0 0 0 0 0 0 0 0 0 0 0
0 0 0 0 0 0 0 0 0 0 0 0 0 0 0 0 0 0 0 0 0 0 0 0 0 0 0 0 0 0 0 0 0 0 0 0 0 0 0 0 0 0 0
0 0 0 0 0 0 0 0 0 0 0 0 0 0 0 0 0 0 0 0 0 0 0 0 0 0 0 0 0 0 0 0 0 0 0 0 0 0 0 0 0 0 0
0 0 0 0 0 0 0 0 0 0 0 0 0 0 0 0 0 0 0 0 0 0 0 0 0 0 0 0 0 0 0 0 0 0 0 0 0 0 0 0 0 0 0
0 0 0 0 0 0 0 0 0 0 0 0 0 0 0 0 0 0 0 0 0 0 0 0 0 0 0 0 0 0 0 0 0 0 0 0 0 0 0 0 0 0 0
0 0 0 0 0 0 0 0 0 0 0 0 0 0 0 0 0 0 0 0 0 0 0 0 0 0 0 0 0 0 0 0 0 0 0 0 0 0 0 0 0 0 0
0 0 0 0 0 0 0 0 0 0 0 0 0 0 0 0 0 0 0 0 0 0 0 0 0 0 0 0 0 0 0 0 0 0 0 0 0 0 0 0 0 0 0
0 0 0 0 0 0 0 0 0 0 0 0 0 0 0 0 0 0 0 0 0 0 0 0 0 0 0 0 0 0 0 0 0 0 0 0 0 0 -0 0 0 -0 -0
0 0 0 0 0 0 0 0 0 0 0 0 0 0 0 0 0 0 0 0 0 0 0 0 0 0 0 0 0 0 0 0 0 0 0 0 0 -0 -0 -0 -0 -0 -0
0 0 0 0 0 0 0 0 0 0 0 0 0 0 0 0 0 0 0 0 0 0 0 0 0 0 0 0 0 0 0 0 0 0 0 0 0 -0 -0 -0 -0 -0 -0
0 0 0 0 0 0 0 0 0 0 0 0 0 0 0 0 0 0 0 0 0 0 0 0 0 0 0 0 0 0 0 0 0 0 0 0 -0 -0 -0 -0 -0 -0 -0
0 0 0 0 0 0 0 0 0 0 0 0 0 0 0 0 0 0 0 0 0 0 0 0 0 0 0 0 0 0 0 0 0 0 0 0 -0 -0 -0 -0 -0 -0 0
Wind_Speed_500mb
81 87 98 103 107 106 103 99 92 86 82 77 75 78 82 79 74 71 65 59 55 51 50 48 47 47 46 47 47 50 56 61 86 122 103 112 118 114 113 113 114 116 121
80 89 96 99 99 104 109 105 98 93 86 76 72 76 80 79 78 74 68 63 57 53 50 50 47 46 46 48 52 54 60 64 76 109 121 116 115 117 119 117 118 118 122
84 89 93 98 96 100 105 104 102 98 90 80 76 79 83 85 82 77 70 65 60 55 52 50 47 46 49 50 51 56 62 68 74 90 123 115 117 115 117 117 121 121 113
79 88 93 93 94 95 101 104 102 99 92 86 82 80 83 84 82 78 73 68 63 55 50 49 46 47 49 51 53 56 62 67 72 83 102 120 111 103 97 106 114 100 106
88 95 96 95 94 94 97 97 96 95 91 86 80 79 85 87 86 82 76 66 60 53 49 49 46 47 49 51 53 55 59 63 69 81 93 104 110 99 94 101 107 111 116
98 98 95 98 95 95 95 94 94 91 89 83 82 84 86 90 87 82 72 64 58 53 50 46 49 46 51 49 49 48 48 54 63 73 83 92 115 100 106 107 109 107 127
100 96 100 101 100 96 91 91 91 90 87 86 86 85 87 89 84 79 71 64 58 53 48 51 47 55 51 51 53 55 53 53 57 66 84 92 109 105 106 115 109 112 124
86 91 91 92 92 88 85 88 88 88 87 87 85 83 85 81 78 72 67 63 56 49 51 48 54 47 43 47 52 55 59 63 68 69 81 91 95 100 96 106 114 117 123
76 76 77 77 79 80 84 86 86 82 83 84 84 84 85 79 79 72 67 58 49 49 52 46 47 38 42 44 46 53 61 72 74 65 71 77 77 83 89 96 109 95 111
61 64 65 67 70 76 80 81 78 76 79 82 84 84 80 77 79 74 67 56 51 56 45 47 40 35 36 38 37 52 67 70 69 71 79 84 87 83 76 66 76 90 95
43 46 50 54 59 65 69 71 73 75 79 82 82 80 79 76 72 68 66 53 58 49 48 40 34 32 33 30 37 46 54 53 66 72 78 81 81 79 77 68 67 77 94
34 34 39 46 52 58 60 65 68 73 77 82 82 81 80 77 71 66 56 58 49 46 44 32 29 28 26 29 33 40 45 49 59 67 73 79 82 82 81 80 74 82 91
49 47 41 35 44 52 58 63 70 73 79 83 86 87 85 77 69 61 57 52 39 44 35 26 23 19 23 28 32 35 41 50 58 66 72 77 79 83 87 91 88 94 98
65 61 55 51 51 51 58 62 69 77 83 88 93 92 87 80 75 65 60 50 50 39 30 21 17 15 22 28 30 35 42 50 57 66 73 78 82 88 90 81 95 98 100
70 71 67 67 66 67 68 74 76 83 88 92 94 93 90 84 70 64 59 55 46 37 27 19 12 15 24 27 31 38 44 51 59 64 73 79 84 89 90 83 96 98 93
74 76 73 73 76 75 75 76 78 83 81 84 89 94 89 75 70 59 53 46 39 33 24 19 15 16 24 29 35 41 44 49 58 65 72 78 83 89 89 95 96 90 93
72 81 79 73 77 75 74 77 83 59 66 74 87 89 82 79 68 61 50 45 37 30 23 19 16 14 20 26 33 40 49 51 59 65 74 82 83 88 84 99 97 92 93
82 79 80 79 78 74 78 80 79 80 68 54 48 64 65 62 62 53 55 49 40 30 23 20 17 15 19 25 31 39 47 54 61 68 75 82 82 83 94 98 96 95 96
77 87 84 78 73 72 69 75 75 72 80 79 65 54 61 58 51 50 49 45 36 29 24 22 17 17 21 25 31 37 45 53 60 67 76 82 86 82 97 98 100 98 95
66 74 81 73 69 68 65 73 77 85 89 85 79 79 75 66 68 63 50 42 34 29 26 19 15 20 21 26 30 37 45 52 60 66 74 83 85 93 96 101 102 101 98
64 65 70 67 68 68 73 81 88 95 96 90 94 80 79 78 68 49 46 39 33 29 24 16 18 18 21 26 31 37 45 51 57 65 74 84 84 103 102 100 103 99 97
58 63 67 68 65 66 75 87 94 99 98 97 81 74 73 65 54 47 42 35 29 25 20 17 18 19 22 27 32 38 44 51 58 64 75 87 95 106 103 104 103 100 95
62 62 62 62 65 67 74 83 93 97 91 82 79 81 73 65 55 46 38 32 25 22 19 18 18 19 22 26 30 35 42 49 55 58 76 88 98 105 104 104 105 100 103
56 59 63 63 66 70 78 85 88 85 83 83 84 71 65 58 50 42 36 29 23 20 20 21 22 22 23 26 29 31 35 42 48 53 71 85 93 102 105 106 104 103 102
49 57 61 64 70 75 74 76 82 81 78 80 73 63 61 54 47 38 31 26 21 20 21 23 24 26 27 28 30 33 34 37 40 49 70 83 87 97 103 105 105 107 103
44 50 53 55 59 63 71 77 75 74 77 74 66 60 54 47 39 33 28 23 21 21 22 23 26 28 28 29 32 33 36 37 43 52 72 80 85 94 102 104 103 104 104
Wind_Direction_500mb
237 241 242 242 243 243 243 242 241 244 244 243 238 236 234 236 237 238 239 242 246 250 258 260 264 270 276 283 288 292 294 297 296 301 301 305 305 308 309 309 307 308 307
243 244 245 246 247 247 246 245 244 244 244 243 239 235 234 236 238 237 239 243 246 250 255 259 265 271 278 283 289 292 295 295 295 298 302 304 306 308 309 309 310 307 306
245 248 248 248 249 250 249 246 244 244 243 241 237 235 236 235 235 237 239 242 245 249 252 257 264 272 277 283 287 293 295 295 296 297 300 303 304 307 310 309 310 308 304
258 255 252 251 253 252 250 247 244 243 242 240 238 236 235 234 235 236 237 241 244 247 251 257 264 271 279 285 290 294 295 296 297 298 298 302 305 306 303 305 304 299 296
262 255 255 256 254 251 249 247 244 242 241 238 235 234 233 233 233 233 235 238 244 248 252 257 266 273 282 287 292 296 296 297 299 300 298 299 298 300 300 300 294 298 295
264 258 256 255 254 250 246 243 240 239 238 235 232 231 233 232 232 233 235 238 241 245 249 258 266 276 280 287 292 290 284 287 290 291 289 287 292 297 298 295 293 294 294
261 258 253 251 249 248 244 240 237 236 234 230 228 229 231 233 232 234 237 237 240 244 250 258 269 272 281 291 290 289 291 288 283 286 285 284 291 295 296 296 293 291 288
262 257 253 247 246 245 241 237 234 231 228 227 227 227 230 231 233 235 237 239 239 246 256 262 265 272 282 286 294 299 301 302 301 297 292 291 288 295 293 291 293 292 288
257 256 252 247 244 241 237 234 231 227 224 225 225 227 227 226 230 233 236 238 242 252 254 260 265 277 284 291 296 301 301 297 298 292 288 288 290 289 290 287 284 288 287
256 253 252 248 244 240 237 234 231 228 227 225 223 224 226 223 225 228 233 233 242 247 253 257 268 283 291 294 301 293 292 301 304 308 301 302 304 305 310 293 287 285 286
274 270 263 255 245 240 236 232 228 224 221 221 221 223 223 220 221 226 231 233 240 243 248 257 270 277 286 295 292 294 300 305 300 307 308 310 316 318 318 310 292 285 285
311 297 277 263 252 243 236 233 226 222 220 219 219 217 217 217 219 222 226 237 235 243 252 262 269 280 296 302 305 308 312 312 315 315 319 322 324 324 320 315 306 292 287
292 291 290 278 261 250 240 231 226 222 221 220 217 215 212 211 212 214 225 227 225 238 248 253 266 289 298 307 309 318 322 325 329 329 326 327 328 327 327 328 316 304 298
276 267 260 263 267 252 241 236 231 227 223 222 218 211 208 208 208 210 215 218 227 234 235 240 258 285 299 306 313 325 333 336 336 333 332 331 332 334 329 321 310 308 302
280 268 263 255 246 240 242 244 237 232 232 224 220 216 209 207 209 216 218 217 216 216 216 230 252 279 289 306 322 329 332 336 337 336 335 335 337 332 326 313 311 308 301
277 269 263 255 248 241 235 231 230 235 232 226 227 215 209 209 211 208 214 214 209 206 199 219 234 273 299 315 326 332 337 339 339 336 338 339 336 326 318 314 313 309 305
278 272 260 253 248 245 238 232 224 217 220 215 216 214 208 203 194 200 204 210 202 204 206 218 246 277 300 316 330 335 340 342 339 340 342 342 339 322 318 317 315 312 309
275 275 266 258 250 241 239 232 225 216 193 193 190 199 200 195 193 190 187 193 201 202 213 234 255 278 300 318 330 335 340 340 341 342 342 344 338 328 321 319 318 315 312
272 268 265 259 251 242 231 224 213 194 183 175 170 177 180 181 175 178 191 188 195 206 221 237 260 286 298 317 327 334 338 341 344 340 343 344 341 329 323 323 320 317 314
267 263 257 250 242 234 221 211 191 182 175 178 184 186 178 173 183 198 189 188 192 210 224 235 265 284 301 315 325 333 338 343 343 341 343 346 343 331 328 326 324 320 317
258 258 251 243 237 227 210 193 186 183 184 187 191 190 187 190 190 187 186 190 195 209 222 236 259 280 305 320 326 332 338 341 341 340 344 347 340 336 339 330 327 323 320
252 248 236 230 222 211 199 193 190 189 193 194 187 185 189 185 186 188 192 196 200 213 228 241 263 288 307 324 328 332 335 339 339 340 344 349 342 343 342 336 332 328 326
238 231 223 215 208 202 195 196 193 195 191 185 180 182 184 183 187 191 195 201 207 223 238 254 270 285 306 317 328 330 329 336 336 340 347 347 342 345 345 339 338 334 332
222 215 208 203 200 196 194 191 194 188 182 179 183 183 178 181 186 190 197 202 213 233 252 266 277 291 300 308 321 326 325 333 336 342 349 343 340 347 349 345 346 340 338
200 198 196 194 190 190 190 189 182 179 177 178 177 175 176 181 185 191 199 207 221 241 259 271 284 290 296 306 318 327 329 330 337 348 343 337 342 347 351 349 351 351 346
186 186 186 186 187 187 182 176 173 172 174 173 173 173 177 180 185 194 203 214 230 246 262 275 281 285 293 304 318 327 334 337 345 353 339 339 345 346 351 350 354 356 351
Wind_Speed_850mb
81 87 98 103 107 106 103 99 92 86 82 77 75 78 82 79 74 71 65 59 55 51 50 48 47 47 46 47 47 50 56 61 86 122 103 112 118 114 113 113 114 116 121
80 89 96 99 99 104 109 105 98 93 86 76 72 76 80 79 78 74 68 63 57 53 50 50 47 46 46 48 52 54 60 64 76 109 121 116 115 117 119 117 118 118 122
84 89 93 98 96 100 105 104 102 98 90 80 76 79 83 85 82 77 70 65 60 55 52 50 47 46 49 50 51 56 62 68 74 90 123 115 117 115 117 117 121 121 113
79 88 93 93 94 95 101 104 102 99 92 86 82 80 83 84 82 78 73 68 63 55 50 49 46 47 49 51 53 56 62 67 72 83 102 120 111 103 97 106 114 100 106
88 95 96 95 94 94 97 97 96 95 91 86 80 79 85 87 86 82 76 66 60 53 49 49 46 47 49 51 53 55 59 63 69 81 93 104 110 99 94 101 107 111 116
98 98 95 98 95 95 95 94 94 91 89 83 82 84 86 90 87 82 72 64 58 53 50 46 49 46 51 49 49 48 48 54 63 73 83 92 115 100 106 107 109 107 127
100 96 100 101 100 96 91 91 91 90 87 86 86 85 87 89 84 79 71 64 58 53 48 51 47 55 51 51 53 55 53 53 57 66 84 92 109 105 106 115 109 112 124
86 91 91 92 92 88 85 88 88 88 87 87 85 83 85 81 78 72 67 63 56 49 51 48 54 47 43 47 52 55 59 63 68 69 81 91 95 100 96 106 114 117 123
76 76 77 77 79 80 84 86 86 82 83 84 84 84 85 79 79 72 67 58 49 49 52 46 47 38 42 44 46 53 61 72 74 65 71 77 77 83 89 96 109 95 111
61 64 65 67 70 76 80 81 78 76 79 82 84 84 80 77 79 74 67 56 51 56 45 47 40 35 36 38 37 52 67 70 69 71 79 84 87 83 76 66 76 90 95
43 46 50 54 59 65 69 71 73 75 79 82 82 80 79 76 72 68 66 53 58 49 48 40 34 32 33 30 37 46 54 53 66 72 78 81 81 79 77 68 67 77 94
34 34 39 46 52 58 60 65 68 73 77 82 82 81 80 77 71 66 56 58 49 46 44 32 29 28 26 29 33 40 45 49 59 67 73 79 82 82 81 80 74 82 91
49 47 41 35 44 52 58 63 70 73 79 83 86 87 85 77 69 61 57 52 39 44 35 26 23 19 23 28 32 35 41 50 58 66 72 77 79 83 87 91 88 94 98
65 61 55 51 51 51 58 62 69 77 83 88 93 92 87 80 75 65 60 50 50 39 30 21 17 15 22 28 30 35 42 50 57 66 73 78 82 88 90 81 95 98 100
70 71 67 67 66 67 68 74 76 83 88 92 94 93 90 84 70 64 59 55 46 37 27 19 12 15 24 27 31 38 44 51 59 64 73 79 84 89 90 83 96 98 93
74 76 73 73 76 75 75 76 78 83 81 84 89 94 89 75 70 59 53 46 39 33 24 19 15 16 24 29 35 41 44 49 58 65 72 78 83 89 89 95 96 90 93
72 81 79 73 77 75 74 77 83 59 66 74 87 89 82 79 68 61 50 45 37 30 23 19 16 14 20 26 33 40 49 51 59 65 74 82 83 88 84 99 97 92 93
82 79 80 79 78 74 78 80 79 80 68 54 48 64 65 62 62 53 55 49 40 30 23 20 17 15 19 25 31 39 47 54 61 68 75 82 82 83 94 98 96 95 96
77 87 84 78 73 72 69 75 75 72 80 79 65 54 61 58 51 50 49 45 36 29 24 22 17 17 21 25 31 37 45 53 60 67 76 82 86 82 97 98 100 98 95
66 74 81 73 69 68 65 73 77 85 89 85 79 79 75 66 68 63 50 42 34 29 26 19 15 20 21 26 30 37 45 52 60 66 74 83 85 93 96 101 102 101 98
64 65 70 67 68 68 73 81 88 95 96 90 94 80 79 78 68 49 46 39 33 29 24 16 18 18 21 26 31 37 45 51 57 65 74 84 84 103 102 100 103 99 97
58 63 67 68 65 66 75 87 94 99 98 97 81 74 73 65 54 47 42 35 29 25 20 17 18 19 22 27 32 38 44 51 58 64 75 87 95 106 103 104 103 100 95
62 62 62 62 65 67 74 83 93 97 91 82 79 81 73 65 55 46 38 32 25 22 19 18 18 19 22 26 30 35 42 49 55 58 76 88 98 105 104 104 105 100 103
56 59 63 63 66 70 78 85 88 85 83 83 84 71 65 58 50 42 36 29 23 20 20 21 22 22 23 26 29 31 35 42 48 53 71 85 93 102 105 106 104 103 102
49 57 61 64 70 75 74 76 82 81 78 80 73 63 61 54 47 38 31 26 21 20 21 23 24 26 27 28 30 33 34 37 40 49 70 83 87 97 103 105 105 107 103
44 50 53 55 59 63 71 77 75 74 77 74 66 60 54 47 39 33 28 23 21 21 22 23 26 28 28 29 32 33 36 37 43 52 72 80 85 94 102 104 103 104 104
Wind_Direction_850mb
237 241 242 242 243 243 243 242 241 244 244 243 238 236 234 236 237 238 239 242 246 250 258 260 264 270 276 283 288 292 294 297 296 301 301 305 305 308 309 309 307 308 307
243 244 245 246 247 247 246 245 244 244 244 243 239 235 234 236 238 237 239 243 246 250 255 259 265 271 278 283 289 292 295 295 295 298 302 304 306 308 309 309 310 307 306
245 248 248 248 249 250 249 246 244 244 243 241 237 235 236 235 235 237 239 242 245 249 252 257 264 272 277 283 287 293 295 295 296 297 300 303 304 307 310 309 310 308 304
258 255 252 251 253 252 250 247 244 243 242 240 238 236 235 234 235 236 237 241 244 247 251 257 264 271 279 285 290 294 295 296 297 298 298 302 305 306 303 305 304 299 296
262 255 255 256 254 251 249 247 244 242 241 238 235 234 233 233 233 233 235 238 244 248 252 257 266 273 282 287 292 296 296 297 299 300 298 299 298 300 300 300 294 298 295
264 258 256 255 254 250 246 243 240 239 238 235 232 231 233 232 232 233 235 238 241 245 249 258 266 276 280 287 292 290 284 287 290 291 289 287 292 297 298 295 293 294 294
261 258 253 251 249 248 244 240 237 236 234 230 228 229 231 233 232 234 237 237 240 244 250 258 269 272 281 291 290 289 291 288 283 286 285 284 291 295 296 296 293 291 288
262 257 253 247 246 245 241 237 234 231 228 227 227 227 230 231 233 235 237 239 239 246 256 262 265 272 282 286 294 299 301 302 301 297 292 291 288 295 293 291 293 292 288
257 256 252 247 244 241 237 234 231 227 224 225 225 227 227 226 230 233 236 238 242 252 254 260 265 277 284 291 296 301 301 297 298 292 288 288 290 289 290 287 284 288 287
256 253 252 248 244 240 237 234 231 228 227 225 223 224 226 223 225 228 233 233 242 247 253 257 268 283 291 294 301 293 292 301 304 308 301 302 304 305 310 293 287 285 286
274 270 263 255 245 240 236 232 228 224 221 221 221 223 223 220 221 226 231 233 240 243 248 257 270 277 286 295 292 294 300 305 300 307 308 310 316 318 318 310 292 285 285
311 297 277 263 252 243 236 233 226 222 220 219 219 217 217 217 219 222 226 237 235 243 252 262 269 280 296 302 305 308 312 312 315 315 319 322 324 324 320 315 306 292 287
292 291 290 278 261 250 240 231 226 222 221 220 217 215 212 211 212 214 225 227 225 238 248 253 266 289 298 307 309 318 322 325 329 329 326 327 328 327 327 328 316 304 298
276 267 260 263 267 252 241 236 231 227 223 222 218 211 208 208 208 210 215 218 227 234 235 240 258 285 299 306 313 325 333 336 336 333 332 331 332 334 329 321 310 308 302
280 268 263 255 246 240 242 244 237 232 232 224 220 216 209 207 209 216 218 217 216 216 216 230 252 279 289 306 322 329 332 336 337 336 335 335 337 332 326 313 311 308 301
277 269 263 255 248 241 235 231 230 235 232 226 227 215 209 209 211 208 214 214 209 206 199 219 234 273 299 315 326 332 337 339 339 336 338 339 336 326 318 314 313 309 305
278 272 260 253 248 245 238 232 224 217 220 215 216 214 208 203 194 200 204 210 202 204 206 218 246 277 300 316 330 335 340 342 339 340 342 342 339 322 318 317 315 312 309
275 275 266 258 250 241 239 232 225 216 193 193 190 199 200 195 193 190 187 193 201 202 213 234 255 278 300 318 330 335 340 340 341 342 342 344 338 328 321 319 318 315 312
272 268 265 259 251 242 231 224 213 194 183 175 170 177 180 181 175 178 191 188 195 206 221 237 260 286 298 317 327 334 338 341 344 340 343 344 341 329 323 323 320 317 314
267 263 257 250 242 234 221 211 191 182 175 178 184 186 178 173 183 198 189 188 192 210 224 235 265 284 301 315 325 333 338 343 343 341 343 346 343 331 328 326 324 320 317
258 258 251 243 237 227 210 193 186 183 184 187 191 190 187 190 190 187 186 190 195 209 222 236 259 280 305 320 326 332 338 341 341 340 344 347 340 336 339 330 327 323 320
252 248 236 230 222 211 199 193 190 189 193 194 187 185 189 185 186 188 192 196 200 213 228 241 263 288 307 324 328 332 335 339 339 340 344 349 342 343 342 336 332 328 326
238 231 223 215 208 202 195 196 193 195 191 185 180 182 184 183 187 191 195 201 207 223 238 254 270 285 306 317 328 330 329 336 336 340 347 347 342 345 345 339 338 334 332
222 215 208 203 200 196 194 191 194 188 182 179 183 183 178 181 186 190 197 202 213 233 252 266 277 291 300 308 321 326 325 333 336 342 349 343 340 347 349 345 346 340 338
200 198 196 194 190 190 190 189 182 179 177 178 177 175 176 181 185 191 199 207 221 241 259 271 284 290 296 306 318 327 329 330 337 348 343 337 342 347 351 349 351 351 346
186 186 186 186 187 187 182 176 173 172 174 173 173 173 177 180 185 194 203 214 230 246 262 275 281 285 293 304 318 327 334 337 345 353 339 339 345 346 351 350 354 356 351